(40692) = 1999 RE228

Discovered at Catalina on 1999-09-08 by CSS.

Orbit

Orbit type: Main Belt

Note: WebGL enabled browser required.

epoch2023-09-13.0
epoch JD2460200.5
perihelion date2022-08-18.56358
perihelion JD2459810.06358
argument of perihelion (°)52.60074
ascending node (°)228.02728
inclination (°)5.49463
eccentricity0.1210624
perihelion distance (AU)2.1773719
Tisserand w.r.t. Jupiter3.5
ΔV w.r.t. Earth (km/sec)9.4
semimajor axis (AU)2.4772769
mean anomaly (°)98.69436
mean daily motion (°/day)0.25277960
aphelion distance (AU)2.777
period (years)3.9
P-vector [x]0.18171814
P-vector [y]-0.92976125
P-vector [z]-0.32019141
Q-vector [x]0.98077047
Q-vector [y]0.14779195
Q-vector [z]0.12746300
absolute magnitude15.05
phase slope0.15
uncertainty0
referenceMPEC 2024-A141
observations used1685
oppositions21
arc length (days)11367
first opposition used1992
last opposition used2024
residual rms (arc-secs)0.65
perturbers coarse indicatorM-v
perturbers precise indicator003Ek
first observation date used1992-11-27.0
last observation date used2024-01-11.0
computer nameMPCLINUX
JD of orbit computation2456966.737783
perihelion JD uncertainty (days)9.8500E-05
argument of perihelion uncertainty (°)4.9335E-05
ascending node uncertainty (°)4.1578E-05
inclination uncertainty (°)4.9989E-06
eccentricity uncertainty 2.7870E-08
perihelion distance uncertainty (AU)7.2339E-08
Minimum Orbit Intersection Distances (in AU)
for orbit epoch: 2460200.5, reference: E2024-AE1
Mercury1.72287
Venus1.45513
Earth1.16563
Mars0.70914
Jupiter2.3267
Saturn6.28489
Uranus15.8308
Neptune27.2029

Observations

1705 total observations over interval: 1992 11 27.17982 – 2024 01 11.132792
These data are available for download (format description).

Date (UT) J2000 RA J2000 Dec Magn Location Ref
1992 11 27.17982 04 01 08.22 +18 21 42.0   691 – Steward Observatory, Kitt Peak-Spacewatch MPS 43119
1992 11 27.20130 04 01 06.87 +18 21 36.3   691 – Steward Observatory, Kitt Peak-Spacewatch MPS 43119
1992 11 27.22066 04 01 05.66 +18 21 30.5 18.5 V 691 – Steward Observatory, Kitt Peak-Spacewatch MPS 43119
1998 02 26.46643 11 19 44.57 -04 06 27.3 19.8 V 566 – Haleakala-NEAT/GEODSS MPS 37490
1998 02 26.47612 11 19 44.00 -04 06 24.9 19.5 V 566 – Haleakala-NEAT/GEODSS MPS 37490
1998 02 26.48685 11 19 43.51 -04 06 21.3 19.2 V 566 – Haleakala-NEAT/GEODSS MPS 37490
1998 03 04.35795 11 14 42.58 -03 33 24.3 19.4   704 – Lincoln Laboratory ETS, New Mexico MPS 43119
1998 03 04.39974 11 14 40.19 -03 33 10.5 19.4   704 – Lincoln Laboratory ETS, New Mexico MPS 43119
1998 03 04.42057 11 14 39.15 -03 33 02.3 19.4   704 – Lincoln Laboratory ETS, New Mexico MPS 43119
1998 03 04.44137 11 14 37.94 -03 32 54.5 19.1   704 – Lincoln Laboratory ETS, New Mexico MPS 43119
1999 07 13.35859 21 58 21.16 -02 47 42.0 18.8   704 – Lincoln Laboratory ETS, New Mexico MPS 37490
1999 07 13.37104 21 58 20.88 -02 47 39.7 19.8   704 – Lincoln Laboratory ETS, New Mexico MPS 37490
1999 07 13.38346 21 58 20.62 -02 47 39.1 19.1   704 – Lincoln Laboratory ETS, New Mexico MPS 37490
1999 07 13.39581 21 58 20.37 -02 47 37.3 19.0   704 – Lincoln Laboratory ETS, New Mexico MPS 37490
1999 07 13.40820 21 58 20.00 -02 47 37.7 19.3   704 – Lincoln Laboratory ETS, New Mexico MPS 37490
1999 09 06.15622 21 19 07.15 -05 53 20.0 18.0 R 699 – Lowell Observatory-LONEOS MPS 62359
1999 09 06.18174 21 19 06.22 -05 53 29.3   699 – Lowell Observatory-LONEOS MPS 62359
1999 09 06.20725 21 19 05.24 -05 53 37.5   699 – Lowell Observatory-LONEOS MPS 62359
1999 09 08.18124 21 17 59.89 -06 04 52.6 18.4 R 703 – Catalina Sky Survey MPS 13672
1999 09 08.19058 21 17 59.63 -06 04 55.9 17.9 R 703 – Catalina Sky Survey MPS 13672
1999 09 08.19989 21 17 59.32 -06 04 59.9 18.0 R 703 – Catalina Sky Survey MPS 13672
1999 09 08.20978 21 17 58.92 -06 05 03.3 17.9 R 703 – Catalina Sky Survey MPS 13672
1999 09 09.20235 21 17 28.32 -06 10 37.8 18.5   704 – Lincoln Laboratory ETS, New Mexico MPS 13672
1999 09 09.21646 21 17 27.96 -06 10 42.8 18.8   704 – Lincoln Laboratory ETS, New Mexico MPS 13672
1999 09 09.23045 21 17 27.45 -06 10 47.2 18.4   704 – Lincoln Laboratory ETS, New Mexico MPS 13672
1999 09 09.24445 21 17 27.00 -06 10 52.8 18.7   704 – Lincoln Laboratory ETS, New Mexico MPS 13672
1999 09 09.25831 21 17 26.62 -06 10 56.3 18.7   704 – Lincoln Laboratory ETS, New Mexico MPS 13672
1999 10 08.10615 21 14 57.56 -08 12 12.6 19.2   704 – Lincoln Laboratory ETS, New Mexico MPS 37490
1999 10 08.12181 21 14 57.89 -08 12 15.2 19.5   704 – Lincoln Laboratory ETS, New Mexico MPS 37490
1999 10 08.13765 21 14 58.18 -08 12 18.0 19.3   704 – Lincoln Laboratory ETS, New Mexico MPS 37490
1999 10 08.15357 21 14 58.49 -08 12 20.2 19.1   704 – Lincoln Laboratory ETS, New Mexico MPS 37490
1999 10 08.16923 21 14 58.76 -08 12 21.9 19.9   704 – Lincoln Laboratory ETS, New Mexico MPS 37490
2000 12 30.22495 05 10 01.71 +17 53 19.4 19.4   704 – Lincoln Laboratory ETS, New Mexico MPS 37490
2000 12 30.23995 05 10 00.92 +17 53 17.3 19.6   704 – Lincoln Laboratory ETS, New Mexico MPS 37490
2000 12 30.25505 05 10 00.04 +17 53 16.7 19.6   704 – Lincoln Laboratory ETS, New Mexico MPS 37490
2000 12 30.27007 05 09 59.23 +17 53 14.8 19.8   704 – Lincoln Laboratory ETS, New Mexico MPS 37490
2001 02 15.79766 04 57 11.83 +17 48 53.4 21.1 V 209 – Asiago Observatory, Cima Ekar-ADAS MPS 37490
2001 02 15.81710 04 57 12.35 +17 48 54.8 20.0 V 209 – Asiago Observatory, Cima Ekar-ADAS MPS 37490
2001 02 15.83540 04 57 12.79 +17 48 56.6 20.1 V 209 – Asiago Observatory, Cima Ekar-ADAS MPS 37490
2002 03 16.32022 11 58 48.02 -07 17 23.2 18.3   704 – Lincoln Laboratory ETS, New Mexico MPS 51628
2002 03 16.33368 11 58 47.27 -07 17 17.6 18.0   704 – Lincoln Laboratory ETS, New Mexico MPS 51628
2002 03 16.34737 11 58 46.60 -07 17 12.6 18.4   704 – Lincoln Laboratory ETS, New Mexico MPS 51628
2002 03 16.36187 11 58 45.80 -07 17 07.2 18.7   704 – Lincoln Laboratory ETS, New Mexico MPS 51628
2002 03 16.37467 11 58 45.16 -07 17 01.4 18.3   704 – Lincoln Laboratory ETS, New Mexico MPS 51628
2002 03 18.35545 11 57 01.84 -07 03 39.3 17.6   704 – Lincoln Laboratory ETS, New Mexico MPS 51628
2002 03 18.37229 11 57 00.91 -07 03 32.5 17.8   704 – Lincoln Laboratory ETS, New Mexico MPS 51628
2002 03 18.38835 11 57 00.02 -07 03 25.3 18.1   704 – Lincoln Laboratory ETS, New Mexico MPS 51628
2002 03 18.40614 11 56 59.05 -07 03 19.5 18.2   704 – Lincoln Laboratory ETS, New Mexico MPS 51628
2002 03 18.42506 11 56 58.05 -07 03 10.5 18.1   704 – Lincoln Laboratory ETS, New Mexico MPS 51628
2002 03 20.25340 11 55 22.23 -06 50 24.3 17.8 R 699 – Lowell Observatory-LONEOS MPS 51628
2002 03 20.26904 11 55 21.44 -06 50 17.6   699 – Lowell Observatory-LONEOS MPS 51628
2002 03 20.28474 11 55 20.49 -06 50 10.9   699 – Lowell Observatory-LONEOS MPS 51628
2002 03 20.30046 11 55 19.67 -06 50 05.0   699 – Lowell Observatory-LONEOS MPS 51628
2002 03 23.34708 11 52 38.96 -06 28 01.9 17.7   704 – Lincoln Laboratory ETS, New Mexico MPS 51628
2002 03 23.36020 11 52 38.22 -06 27 56.4 18.0   704 – Lincoln Laboratory ETS, New Mexico MPS 51628
2002 03 23.36970 11 52 37.91 -06 27 50.0 19.1   608 – Haleakala-AMOS MPS 51628
2002 03 23.37469 11 52 37.44 -06 27 50.0 18.2   704 – Lincoln Laboratory ETS, New Mexico MPS 51628
2002 03 23.38024 11 52 37.33 -06 27 46.5 18.7   608 – Haleakala-AMOS MPS 51628
2002 03 23.38964 11 52 36.63 -06 27 42.8 18.1   704 – Lincoln Laboratory ETS, New Mexico MPS 51628
2002 03 23.39065 11 52 36.76 -06 27 42.2 18.7   608 – Haleakala-AMOS MPS 51628
2002 03 23.40211 11 52 35.97 -06 27 37.4 17.9   704 – Lincoln Laboratory ETS, New Mexico MPS 51628
2002 04 04.24868 11 42 41.15 -04 57 19.5 18.3   644 – Palomar Mountain/NEAT MPS 54443
2002 04 04.26953 11 42 40.13 -04 57 09.9 17.9   644 – Palomar Mountain/NEAT MPS 54443
2002 04 04.29059 11 42 39.10 -04 57 00.1 18.0   644 – Palomar Mountain/NEAT MPS 54443
2002 04 05.20374 11 41 57.30 -04 49 59.6 18.4   644 – Palomar Mountain/NEAT MPS 54444
2002 04 05.22471 11 41 56.31 -04 49 49.9 17.9   644 – Palomar Mountain/NEAT MPS 54444
2002 04 05.24443 11 41 55.36 -04 49 40.9 17.8   644 – Palomar Mountain/NEAT MPS 54444
2002 04 10.24260 11 38 20.82 -04 12 04.0 18.0   704 – Lincoln Laboratory ETS, New Mexico MPS 54444
2002 04 10.25407 11 38 20.38 -04 11 59.3 18.9   704 – Lincoln Laboratory ETS, New Mexico MPS 54444
2002 04 10.26634 11 38 19.80 -04 11 53.6 18.6   704 – Lincoln Laboratory ETS, New Mexico MPS 54444
2002 04 10.27785 11 38 19.34 -04 11 48.1 18.4   704 – Lincoln Laboratory ETS, New Mexico MPS 54444
2002 04 10.28930 11 38 18.84 -04 11 43.1 18.4   704 – Lincoln Laboratory ETS, New Mexico MPS 54444
2002 04 12.25160 11 37 02.67 -03 57 25.3 18.4   704 – Lincoln Laboratory ETS, New Mexico MPS 54444
2002 04 12.26572 11 37 02.11 -03 57 19.1 18.3   704 – Lincoln Laboratory ETS, New Mexico MPS 54444
2002 04 12.27958 11 37 01.54 -03 57 13.0 18.7   704 – Lincoln Laboratory ETS, New Mexico MPS 54444
2002 04 12.29328 11 37 01.00 -03 57 07.4 18.6   704 – Lincoln Laboratory ETS, New Mexico MPS 54444
2002 04 12.30731 11 37 00.43 -03 57 01.1 18.5   704 – Lincoln Laboratory ETS, New Mexico MPS 54444
2002 04 14.28222 11 35 49.03 -03 42 58.8 18.4   704 – Lincoln Laboratory ETS, New Mexico MPS 54444
2002 04 14.29627 11 35 48.52 -03 42 53.7 18.8   704 – Lincoln Laboratory ETS, New Mexico MPS 54444
2002 04 14.30996 11 35 47.97 -03 42 47.4 18.7   704 – Lincoln Laboratory ETS, New Mexico MPS 54444
2002 04 14.32364 11 35 47.49 -03 42 41.7 18.3   704 – Lincoln Laboratory ETS, New Mexico MPS 54444
2002 04 14.33867 11 35 46.92 -03 42 35.5 18.5   704 – Lincoln Laboratory ETS, New Mexico MPS 54444
2002 05 24.19948 11 33 31.40 -01 08 04.0 20.0   644 – Palomar Mountain/NEAT MPS 58594
2002 05 24.20982 11 33 31.64 -01 08 03.8 20.0   644 – Palomar Mountain/NEAT MPS 58594
2002 05 24.22035 11 33 31.94 -01 08 03.4 20.2   644 – Palomar Mountain/NEAT MPS 58594
2003 06 26.37252 22 54 38.80 +00 54 39.6 18.9   704 – Lincoln Laboratory ETS, New Mexico MPS 81783
